Iridium Next SV168
operational LEOCIRCULARPOLAR
Über Iridium Next SV168
Group: 3 satellites
Beschreibung wird geladen...
Live-Position
3D-Globus wird geladen...
Nächste Überflüge
Höhenverlauf
Altitude vs Time
uPlot chart will show altitude changes over time
Zweizeiliger Elementsatz
1 43924U 19002C 25351.73146469 .00000076 00000-0 20103-4 0 9993
2 43924 86.3965 69.5268 0002063 98.8416 261.3013 14.34214924362960
Epoch: 17. Dez. 2025 •
Age: 15 hours
Aktueller Status
Höhe 789.6 km
Geschwindigkeit 7.47 km/s
Subsatellitenpunkt 78.45°N,
135°W
Startdatum 11. Jan. 2019
Alter 6.9 years
Typ communications
Technische Details
Klassifizierung Payload
Masse 860.00 kg
Trockenmasse 700.00 kg
Gesamtmasse 860.00 kg
Länge 3.10 m
Durchmesser 1.50 m
Spannweite 9.40 m
Form Half Hex Prism+2 pan
Hersteller NGISGA
Bus-Typ EliteBus
Phasenstatus In Orbit
Besitzer/Staat IRIDS/US
Große Konstellationen
Loading constellations...